Volver al catálogo

STARLINK-34719

ActivoComunicacionesSSO
NORAD 64943·PAYLOAD·🇺🇸 United States

Lanzado Jul 26, 2025 desde Vandenberg Space Force Base

Loading…

Próximos Pases (próximas 24 horas)

TLE

ActualizadoSource: CelesTrak SupGP

Época: Sep 14, 2026, 22:49 UTC

1 64943C 25158M   26257.95118056  .00054310  00000+0  16852-2 0  2577
2 64943  97.2849 116.2822 0001441  92.7889 216.8010 15.33425605    15

Sigue STARLINK-34719 en tiempo real con AllMySat

Download on the App Store